User: anonymous   Login
Location: Unspecified
(0.0000°N, 0.0000°E)
Time: 13:33:55
(UTC+00:00)
Language:

NOAA 18 - Orbit

View from above orbital plane
View from above orbital plane
View from above satellite
View from above satellite

Ground track
Ground track

The orbit data is extracted from the following two-line orbital elements,

1 28654U 05018A   18173.84453012 -.00000028 +00000-0 +96926-5 0  9994
2 28654 099.1442 209.4130 0015435 110.7179 249.5647 14.12378756674489
Epoch (UTC): 22 June 2018 20:16:07
Eccentricity: 0.0015435
inclination: 99.1442°
perigee height: 840 km
apogee height: 862 km
right ascension of ascending node: 209.4130°
argument of perigee: 110.7179°
revolutions per day: 14.12378756
mean anomaly at epoch: 249.5647°
orbit number at epoch: 67448

The dashed part of the orbit path shows where the satellite is in the earth's shadow,  

DLR